BSAT-3B

Last updated on Fri Jun 19 2026 17:09:30 GMT+0000 (Coordinated Universal Time)

1 37207U 10056B 26169.98796802 -.00000356 00000+0 00000+0 0 9997 2 37207 0.0577 237.0553 0001726 305.5919 190.0661 1.00268466 52118
UTC large
Height (km)
Speed (km/s)
/
Latitude / Longitude
Inclination (degrees)
Orbital Period (minutes)
Azimuth
Elevation
Range (km)
Doppler Factor

Next 0 passes for location: London (51.5072 / 0.1276)

Sorry there are no passes over London.
BSAT-3B